View from above orbital plane
|
View from above satellite
|
Ground track
|
The orbit data is extracted from the following two-line orbital elements,
1 20103U 89050A 21016.88116132 .00000042 00000-0 28256-4 0 9991
2 20103 82.9626 321.7493 0036440 221.9734 190.9257 13.74600577581787
Epoch (UTC): | 16 January 2021 21:08:52 |
Eccentricity: | 0.0036440 |
inclination: | 82.9626° |
perigee height: | 956 km |
apogee height: | 1010 km |
right ascension of ascending node: | 321.7493° |
argument of perigee: | 221.9734° |
revolutions per day: | 13.74600577 |
mean anomaly at epoch: | 190.9257° |
orbit number at epoch: | 58178 |
The dashed part of the orbit path shows where the satellite is in the earth's shadow,
|
|